Location: Bjelajci
(45.0103°N, 16.1758°E)
Time: 03:11:14
(UTC+00:00)

CZ-2C R/B - Pass Details

Date: 14 July 2020
Orbit: 503 x 567 km, 97.7° (Epoch: 11 August)

Event Time Altitude Azimuth Distance (km) Brightness Sun altitude
Rises 02:11:10 0° 15° (NNE) 2,777 7.6 -10.6°
Reaches altitude 10° 02:13:21 10° 19° (NNE) 1,875 6.7 -10.3°
Maximum altitude 02:17:23 62° 101° (E) 638 3.3 -9.8°
Drops below altitude 10° 02:21:21 10° 183° (S) 1,848 5.1 -9.3°
Enters shadow 02:22:23 - 185° (S) 2,274 5.5 -9.2°
